This is the latest recevied weather packets stored in our database for station/object KE6JJJ-1. If no packets are shown the sender has not sent any weather packets the latest 10 day(s).
| Time | Temp. | Humidity | Pressure | Rain* | Wind** | Luminosity | Snow |
|---|---|---|---|---|---|---|---|
| 1788246352 | 16.67° C | 81% | 1013.6 hPa | 0 mm | - | 0 W/m² | - |
| 1788246303 | 16.67° C | 81% | 1013.6 hPa | 0 mm | - | 0 W/m² | - |
| 1788244503 | 16.67° C | 80% | 1013.6 hPa | 0 mm | - | 0 W/m² | - |
| 1788242703 | 16.67° C | 81% | 1013.7 hPa | 0 mm | - | 0 W/m² | - |
| 1788240905 | 16.67° C | 80% | 1013.9 hPa | 0 mm | - | 0 W/m² | - |
| 1788239103 | 16.67° C | 78% | 1013.9 hPa | 0 mm | - | 0 W/m² | - |
| 1788237303 | 16.67° C | 78% | 1013.7 hPa | 0 mm | - | 0 W/m² | - |
| 1788235506 | 16.67° C | 80% | 1013.7 hPa | 0 mm | - | 0 W/m² | - |
| 1788233703 | 16.67° C | 80% | 1013.3 hPa | 0 mm | - | 0 W/m² | - |
| 1788231903 | 17.22° C | 78% | 1012.9 hPa | 0 mm | - | 0 W/m² | - |
| 1788226503 | 17.78° C | 74% | 1013 hPa | 0 mm | - | 100 W/m² | - |
| 1788224703 | 17.78° C | 74% | 1012.9 hPa | 0 mm | - | 169 W/m² | - |
| 1788222903 | 18.89° C | 74% | 1013.1 hPa | 0 mm | - | 158 W/m² | - |
| 1788221105 | 18.89° C | 77% | 1013.2 hPa | 0 mm | - | 225 W/m² | - |
| 1788217503 | 18.89° C | 77% | 1013.2 hPa | 0 mm | - | 332 W/m² | - |
| 1788215703 | 18.33° C | 76% | 1013.6 hPa | 0 mm | - | 149 W/m² | - |
| 1788213903 | 18.89° C | 77% | 1013.7 hPa | 0 mm | - | 370 W/m² | - |
| 1788212103 | 18.33° C | 78% | 1014.3 hPa | 0 mm | - | 324 W/m² | - |
| 1788210303 | 18.33° C | 77% | 1014.3 hPa | 0 mm | - | 313 W/m² | - |
| 1788208522 | 18.33° C | 77% | 1014.4 hPa | 0 mm | - | 350 W/m² | - |
| 1788206703 | 18.33° C | 76% | 1014.4 hPa | 0 mm | - | 381 W/m² | - |
| 1788204906 | 17.78° C | 78% | 1014.4 hPa | 0 mm | - | 397 W/m² | - |
| 1788203113 | 17.22° C | 80% | 1014.6 hPa | 0 mm | - | 394 W/m² | - |
| 1788201311 | 16.67° C | 82% | 1014.5 hPa | 0 mm | - | 267 W/m² | - |
| 1788199503 | 16.67° C | 84% | 1014.5 hPa | 0 mm | - | 271 W/m² | - |
* Rain latest hour (hover to see other rain measurements)
** Current wind speed in m/s (hover to see current wind gust speed)